Weather History for Harrison, AR

Change the Weather History Date:

Thursday, June 19, 2014

  Actual Average Record
Temperature  
Mean Temperature 79 °F 75 °F  
Max Temperature 86 °F 86 °F 102 °F (1953)
Min Temperature 71 °F 64 °F 42 °F (1912)
Degree Days  
Heating Degree Days 0 0  
Month to date heating degree days 0 3  
Since 1 June heating degree days 0 3  
Since 1 July heating degree days 4465 4001  
Cooling Degree Days 14 10  
Month to date cooling degree days 151 146  
Year to date cooling degree days 338 285  
Since 1 June cooling degree days 151 146  
Growing Degree Days 28 (Base 50)    
Moisture  
Dew Point 67 °F    
Average Humidity 74    
Maximum Humidity 93    
Minimum Humidity 55    
Precipitation  
Precipitation 0.00 in 0.14 in 1.80 in (1987)
Month to date precipitation 3.00 2.75  
Year to date precipitation 18.31 20.75  
Snow  
Snow 0.00 in 0.00 in - ()
Month to date snowfall 0.0 0.0  
Since 1 June snowfall 0.0 0.0  
Since 1 July snowfall 25.8 11.5  
Snow Depth 0.00 in    
Sea Level Pressure  
Sea Level Pressure 30.03 in    
Wind  
Wind Speed 5 mph (South)    
Max Wind Speed 17 mph    
Max Gust Speed 23 mph    
Visibility 10 miles    
Events      
T = Trace of Precipitation, MM = Missing Value Source: NWS Daily Summary

Daily Weather History Graph

Daily Weather History Graph

Search for Another Location

Airport:

Trip Planner

Search our weather history database for the weather conditions in past years. The results will help you decide how hot, cold, wet, or windy it might be!

Date:

Astronomy

Jun. 19, 2014 Rise Set
Actual Time 5:55 AM CDT 8:32 PM CDT
Civil Twilight 5:24 AM CDT 9:03 PM CDT
Nautical Twilight 4:46 AM CDT 9:41 PM CDT
Astronomical Twilight 4:04 AM CDT 10:23 PM CDT
Moon 12:48 AM CDT (6/19) 1:13 PM CDT (6/19)
Length of Visible Light 15h 38m
Length of Day
14h 37m
Waning Gibbous, 51% of the Moon is Illuminated
Jun 19
Waning Gibbous
Jun 19
Last Quarter
Jun 27
New
Jul 5
First Quarter
Jul 12
Full

Hourly Weather History & Observations

Time (CDT) Temp. Heat Index Dew Point Humidity Pressure Visibility Wind Dir Wind Speed Gust Speed Precip Events Conditions
12:53 AM 73.0 °F - 66.9 °F 81% 29.99 in 10.0 mi South 5.8 mph - N/A   Clear
1:53 AM 71.6 °F - 66.2 °F 83% 30.04 in 10.0 mi SSE 6.9 mph - N/A   Clear
2:53 AM 72.0 °F - 66.9 °F 84% 29.99 in 10.0 mi SSE 5.8 mph - N/A   Clear
3:53 AM 71.1 °F - 66.9 °F 87% 29.98 in 10.0 mi Calm Calm - N/A   Clear
4:53 AM 71.6 °F - 68.0 °F 88% 30.05 in 10.0 mi South 6.9 mph - N/A   Clear
5:53 AM 73.0 °F - 66.9 °F 81% 30.00 in 10.0 mi SSW 3.5 mph - N/A   Clear
6:53 AM 73.0 °F - 66.9 °F 81% 30.02 in 10.0 mi South 3.5 mph - N/A   Clear
7:53 AM 75.0 °F - 68.0 °F 79% 30.04 in 10.0 mi South 8.1 mph - N/A   Clear
8:53 AM 79.0 °F - 68.0 °F 69% 30.06 in 10.0 mi South 9.2 mph - N/A   Clear
10:53 AM 84.0 °F 86.5 °F 66.9 °F 56% 30.06 in 10.0 mi Variable 6.9 mph - N/A   Clear
11:53 AM 84.0 °F 87.0 °F 68.0 °F 58% 30.05 in 10.0 mi South 10.4 mph 21.9 mph N/A   Partly Cloudy
12:53 PM 84.9 °F 88.2 °F 68.0 °F 57% 30.04 in 10.0 mi South 9.2 mph 20.7 mph N/A   Clear
1:53 PM 84.9 °F 87.1 °F 66.0 °F 53% 30.04 in 10.0 mi South 11.5 mph - N/A   Clear
2:53 PM 84.0 °F 86.3 °F 66.0 °F 55% 30.06 in 10.0 mi South 10.4 mph 18.4 mph N/A   Partly Cloudy
3:53 PM 82.9 °F 85.4 °F 66.9 °F 58% 30.05 in 10.0 mi SSW 10.4 mph 16.1 mph N/A   Clear
4:53 PM 82.9 °F 84.6 °F 64.9 °F 54% 30.01 in 10.0 mi SSW 5.8 mph 17.3 mph N/A   Clear
5:53 PM 79.0 °F - 66.9 °F 66% 30.01 in 10.0 mi SSW 6.9 mph - N/A   Clear
6:53 PM 79.0 °F - 68.0 °F 69% 30.01 in 10.0 mi SSW 5.8 mph - N/A   Clear
7:53 PM 78.1 °F - 68.0 °F 71% 30.02 in 10.0 mi Calm Calm - N/A   Clear
8:53 PM 73.9 °F - 68.0 °F 82% 30.02 in 10.0 mi Calm Calm - N/A   Clear
9:53 PM 72.0 °F - 68.0 °F 87% 30.03 in 10.0 mi Calm Calm - N/A   Clear
10:53 PM 75.0 °F - 68.0 °F 79% 30.04 in 10.0 mi Calm Calm - N/A   Clear
11:53 PM 72.0 °F - 69.1 °F 91% 30.05 in 10.0 mi Calm Calm - N/A   Clear